Overview Statistics Trail Chart Weather Telemetry Raw packets
 

This is the latest recevied weather packets stored in our database for station/object ac2ev. If no packets are shown the sender has not sent any weather packets the latest 10 day(s).

<< 55 56 57 58 59 60 61 >>
Time Temp. Humidity Pressure Rain* Wind** Luminosity Snow
1788281463 25° C 83% 1013.2 hPa 0 mm - - -
1788281163 25° C 82% 1013.1 hPa 0 mm - - -
1788280863 25° C 84% 1013.2 hPa 0 mm - - -
1788280562 25° C 83% 1013.1 hPa 0 mm - - -
1788280263 25.56° C 82% 1013.2 hPa 0 mm - - -
1788279962 25.56° C 82% 1013.1 hPa 0 mm - - -
1788279663 26.11° C 80% 1013.1 hPa 0 mm - - -
1788279362 26.67° C 78% 1012.9 hPa 0 mm - - -
1788279063 26.67° C 79% 1013 hPa 0 mm - - -
1788278763 26.67° C 80% 1012.9 hPa 0 mm - - -
1788278463 26.67° C 81% 1012.9 hPa 0 mm - - -
1788278163 26.67° C 79% 1012.8 hPa 0 mm - - -
1788277863 26.11° C 81% 1012.8 hPa 0 mm - - -
1788277562 26.11° C 80% 1012.6 hPa 0 mm - - -
1788277263 26.11° C 81% 1012.6 hPa 0 mm - - -
1788276963 25.56° C 82% 1012.7 hPa 0 mm - - -
1788276662 25.56° C 82% 1012.8 hPa 0 mm - - -
1788276363 25.56° C 82% 1012.7 hPa 0 mm - - -
1788276055 25.56° C 83% 1012.7 hPa 0 mm - - -
1788275750 25.56° C 82% 1012.7 hPa 0 mm - - -
1788275443 25.56° C 81% 1012.7 hPa 0 mm - - -
1788275144 25.56° C 82% 1012.7 hPa 0 mm - - -
1788274842 25.56° C 83% 1012.8 hPa 0 mm - - -
1788274540 25.56° C 83% 1012.8 hPa 0 mm - - -
1788274238 25.56° C 83% 1012.8 hPa 0 mm - - -

* Rain latest hour (hover to see other rain measurements)
** Current wind speed in m/s (hover to see current wind gust speed)